Location: Cerda�ola
(41.4919°N, 2.1403°E)
Time: 02:56:56
(UTC+00:00)

Cosmos 1626 - Pass Details

Date: 29 March 2020
Orbit: 492 x 494 km, 82.5° (Epoch: 31 May)

Event Time Altitude Azimuth Distance (km) Brightness Sun altitude
Rises 18:51:37 0° 4° (N) 2,584 5.9 -7.8°
Reaches altitude 10° 18:53:59 10° 17° (NNE) 1,697 4.8 -8.2°
Maximum altitude 18:57:08 26° 75° (ENE) 1,013 3.2 -8.8°
Drops below altitude 10° 19:00:16 10° 134° (SE) 1,686 4.3 -9.4°
Enters shadow 19:00:30 - 135° (SE) 1,764 4.4 -9.4°
